Home   Weather   Gütersloh   Past weeks

Flag for Germany Past Weather in Gütersloh, North Rhine-Westphalia, Germany — Yesterday and Last 2 Weeks

Now
57 °F

Sunny.


Feels Like: 54 °F
Forecast: 45 / 58 °F
Wind: 13 mph from East

Location: Paderborn / Lippstadt

Current Time: Apr 30, 2017 at 9:01:35 pm

Latest Report: Apr 30, 2017 at 8:20 pm


Visibility: 10 mi

Pressure: 29.77 "Hg

Humidity: 36%

Dew Point: 30 °F

Location of GüterslohLocation

Past Weather in Gütersloh — Graph

°F

Gütersloh Temperature Yesterday

Maximum temperature yesterday: 52 °F (at 4:20 pm)
Minimum temperature yesterday: 37 °F (at 11:50 pm)
Average temperature yesterday: 44 °F

High & Low Weather Summary for the Past Weeks

 TemperatureHumidityPressure
High61 °F (Apr 30, 3:20 pm)100% (Apr 22, 3:50 am)30.60 "Hg (Apr 22, 3:50 am)
Low27 °F (Apr 20, 5:50 am)30% (Apr 27, 3:50 pm)29.62 "Hg (Apr 25, 3:50 am)
Average43 °F63%30.10 "Hg
* Reported Apr 19 8:50 am — Apr 30 7:50 pm, Gütersloh, Weather by CustomWeather, © 2017

Note: Actual official high and low records may vary slightly from our data, if they occured in-between our weather recording intervals... More about our weather records

Advertising

Gütersloh Weather History for the Previous 24 Hours

Scroll right to see more
 ConditionsComfort  
Time TempWeatherWind HumidityBarometerVisibility
7:50 pm
Sun, Apr 30
57 °FSunny.16 mph39%29.77 "Hg10 mi
7:20 pm59 °FSunny.17 mph36%29.77 "Hg10 mi
6:50 pm61 °FSunny.17 mph34%29.77 "Hg10 mi
6:20 pm61 °FPassing clouds.15 mph34%29.80 "HgN/A
5:50 pm61 °FPassing clouds.17 mph31%29.80 "HgN/A
5:20 pm61 °FPassing clouds.16 mph31%29.83 "HgN/A
4:50 pm61 °FPassing clouds.16 mph31%29.83 "HgN/A
4:20 pm61 °FPassing clouds.14 mph34%29.83 "HgN/A
3:50 pm59 °FSunny.21 mph34%29.86 "Hg10 mi
3:20 pm61 °FPassing clouds.18 mph34%29.86 "HgN/A
2:50 pm59 °FSunny.20 mph36%29.89 "Hg10 mi
2:20 pm57 °FPassing clouds.18 mph39%29.89 "HgN/A
1:50 pm59 °FPassing clouds.15 mph36%29.92 "HgN/A
1:20 pm57 °FScattered clouds.17 mph36%29.92 "HgN/A
12:50 pm57 °FScattered clouds.16 mph39%29.92 "HgN/A
12:20 pm57 °FScattered clouds.15 mph44%29.95 "HgN/A
11:50 am55 °FSunny.13 mph51%29.95 "Hg10 mi
11:20 am54 °FSunny.15 mph51%29.98 "Hg10 mi
10:50 am50 °FSunny.14 mph54%29.98 "Hg10 mi
10:20 am50 °FPassing clouds.14 mph50%30.01 "HgN/A
9:50 am48 °FPassing clouds.14 mph50%30.01 "HgN/A
9:20 am46 °FSunny.15 mph50%30.01 "Hg10 mi
8:50 am45 °FSunny.13 mph53%30.01 "Hg10 mi
8:20 am45 °FSunny.14 mph53%30.01 "Hg10 mi
7:50 am43 °FSunny.12 mph57%30.01 "Hg10 mi
7:20 am41 °FSunny.10 mph61%30.01 "Hg10 mi
6:50 am39 °FSunny.9 mph61%30.01 "Hg10 mi
6:20 am39 °FSunny.8 mph61%30.01 "Hg10 mi
5:50 am39 °FClear.9 mph61%30.01 "Hg10 mi
5:20 am39 °FClear.8 mph61%30.01 "Hg10 mi
4:50 am39 °FClear.8 mph65%30.04 "Hg10 mi
4:20 am39 °FClear.7 mph65%30.04 "Hg10 mi
3:50 am39 °FClear.6 mph65%30.04 "Hg10 mi
3:20 am39 °FClear.6 mph65%30.04 "Hg10 mi
2:50 am37 °FPassing clouds.5 mph70%30.04 "HgN/A
2:20 am37 °FClear.7 mph70%30.04 "Hg10 mi
1:50 am37 °FClear.6 mph70%30.04 "Hg10 mi
1:20 am37 °FClear.6 mph70%30.04 "Hg10 mi
12:50 am39 °FClear.6 mph65%30.07 "Hg10 mi
12:20 am37 °FClear.7 mph70%30.07 "Hg10 mi
11:50 pm
Sat, Apr 29
37 °FClear.7 mph70%30.07 "Hg10 mi
11:20 pm39 °FClear.6 mph65%30.07 "Hg10 mi
10:50 pm39 °FClear.6 mph61%30.07 "Hg10 mi
10:20 pm39 °FClear.7 mph65%30.07 "Hg10 mi
9:20 pm43 °FClear.5 mph53%30.07 "Hg10 mi
Weather by CustomWeather, © 2017

See weather overviewHow to use our weather pages